• In Slovakia
  • List of Countries
  • For 7 days
  • Water Temperature
  • Satellite Maps
  • Weather Map
  • Weather Widgets
  • user-avatar
    Login

    Hourly Weather Marbella

    Today, 17 October, Wednesday

    Time Temperature Precipitation Wind Pressure Humidity
    00:00 +20°C° 0 mm 1 mps 756 mmHg 73%
    01:00 +20°C° 0 mm 1 mps 756 mmHg 73%
    02:00 +19°C° 0 mm 1 mps 756 mmHg 74%
    03:00 +19°C° 0 mm 1 mps 756 mmHg 74%
    04:00 +19°C° 0 mm 1 mps 756 mmHg 74%
    05:00 +19°C° 0 mm 1 mps 756 mmHg 74%
    06:00 +19°C° 0 mm 1 mps 756 mmHg 74%
    07:00 +20°C° 0 mm 1 mps 756 mmHg 68%
    08:00 +22°C° 0 mm 1 mps 756 mmHg 62%
    09:00 +23°C° 0 mm 1 mps 756 mmHg 56%
    10:00 +25°C° 0 mm 1 mps 756 mmHg 52%
    11:00 +26°C° 0 mm 2 mps 756 mmHg 47%
    12:00 +27°C° 0 mm 2 mps 756 mmHg 45%
    13:00 +27°C° 0 mm 2 mps 755 mmHg 45%
    14:00 +27°C° 0 mm 3 mps 755 mmHg 44%
    15:00 +27°C° 0 mm 3 mps 754 mmHg 44%
    16:00 +26°C° 0 mm 3 mps 754 mmHg 49%
    17:00 +25°C° 0 mm 2 mps 754 mmHg 54%
    18:00 +24°C° 0 mm 2 mps 754 mmHg 59%
    19:00 +23°C° 0 mm 2 mps 754 mmHg 63%
    20:00 +21°C° 0 mm 2 mps 754 mmHg 67%
    21:00 +20°C° 0 mm 2 mps 754 mmHg 71%
    22:00 +20°C° 0 mm 2 mps 753 mmHg 73%
    23:00 +20°C° 0 mm 2 mps 753 mmHg 75%

    Tomorrow, 18 October, Thursday

    Time Temperature Precipitation Wind Pressure Humidity
    00:00 +19°C° 0 mm 2 mps 752 mmHg 77%
    01:00 +19°C° 0.3 mm 2 mps 752 mmHg 79%
    02:00 +18°C° 0.3 mm 2 mps 751 mmHg 82%
    03:00 +18°C° 0.3 mm 2 mps 750 mmHg 84%
    04:00 +18°C° 2.4 mm 2 mps 750 mmHg 85%
    05:00 +18°C° 2.4 mm 3 mps 749 mmHg 86%
    06:00 +18°C° 2.4 mm 3 mps 749 mmHg 86%
    07:00 +18°C° 3 mm 3 mps 749 mmHg 85%
    08:00 +18°C° 3 mm 3 mps 749 mmHg 83%
    09:00 +17°C° 3 mm 3 mps 750 mmHg 82%
    10:00 +18°C° 0.4 mm 3 mps 750 mmHg 77%
    11:00 +19°C° 0.4 mm 3 mps 750 mmHg 72%
    12:00 +19°C° 0.4 mm 3 mps 750 mmHg 67%
    13:00 +19°C° 0.4 mm 3 mps 750 mmHg 66%
    14:00 +19°C° 0.4 mm 2 mps 750 mmHg 65%
    15:00 +19°C° 0.4 mm 2 mps 750 mmHg 64%
    16:00 +18°C° 0.1 mm 2 mps 750 mmHg 68%
    17:00 +18°C° 0.1 mm 2 mps 750 mmHg 71%
    18:00 +18°C° 0.1 mm 1 mps 750 mmHg 75%
    19:00 +18°C° 0.1 mm 1 mps 750 mmHg 76%
    20:00 +18°C° 0.1 mm 1 mps 751 mmHg 78%
    21:00 +16°C° 0.1 mm 1 mps 751 mmHg 80%
    22:00 +16°C° 0 mm 1 mps 751 mmHg 80%
    23:00 +16°C° 0 mm 1 mps 751 mmHg 81%

    Day after tomorrow, 19 October, Friday

    Time Temperature Precipitation Wind Pressure Humidity
    00:00 +15°C° 0 mm 1 mps 751 mmHg 82%
    01:00 +15°C° 0 mm 1 mps 751 mmHg 81%
    02:00 +15°C° 0 mm 1 mps 751 mmHg 81%
    03:00 +15°C° 0 mm 1 mps 751 mmHg 80%
    04:00 +15°C° 0.1 mm 1 mps 751 mmHg 80%
    05:00 +16°C° 0.1 mm 1 mps 751 mmHg 80%
    06:00 +16°C° 0.1 mm 1 mps 751 mmHg 79%
    07:00 +16°C° 0.2 mm 1 mps 751 mmHg 75%
    08:00 +18°C° 0.2 mm 1 mps 752 mmHg 71%
    09:00 +18°C° 0.2 mm 2 mps 752 mmHg 68%
    10:00 +19°C° 0.1 mm 2 mps 752 mmHg 62%
    11:00 +20°C° 0.1 mm 3 mps 752 mmHg 57%
    12:00 +21°C° 0.1 mm 4 mps 752 mmHg 51%
    13:00 +22°C° 0.4 mm 4 mps 752 mmHg 51%
    14:00 +22°C° 0.4 mm 5 mps 752 mmHg 51%
    15:00 +22°C° 0.4 mm 5 mps 752 mmHg 50%
    16:00 +21°C° 0.3 mm 5 mps 752 mmHg 57%
    17:00 +19°C° 0.3 mm 5 mps 753 mmHg 63%
    18:00 +17°C° 0.3 mm 5 mps 753 mmHg 70%
    19:00 +17°C° 0.1 mm 5 mps 753 mmHg 73%
    20:00 +16°C° 0.1 mm 5 mps 754 mmHg 76%
    21:00 +16°C° 0.1 mm 5 mps 754 mmHg 79%
    22:00 +16°C° 0.2 mm 5 mps 754 mmHg 79%
    23:00 +16°C° 0.2 mm 5 mps 754 mmHg 78%

    20 October, Saturday

    Time Temperature Precipitation Wind Pressure Humidity
    00:00 +16°C° 0.2 mm 5 mps 754 mmHg 78%
    01:00 +16°C° 1 mm 5 mps 754 mmHg 78%
    02:00 +16°C° 1 mm 5 mps 754 mmHg 78%
    03:00 +17°C° 1 mm 4 mps 754 mmHg 78%
    04:00 +17°C° 3.4 mm 4 mps 754 mmHg 81%
    05:00 +17°C° 3.4 mm 3 mps 753 mmHg 83%
    06:00 +17°C° 3.4 mm 3 mps 753 mmHg 86%
    07:00 +17°C° 7.6 mm 3 mps 753 mmHg 86%
    08:00 +17°C° 7.6 mm 3 mps 754 mmHg 86%
    09:00 +17°C° 7.6 mm 3 mps 754 mmHg 87%
    10:00 +17°C° 5.3 mm 4 mps 754 mmHg 86%
    11:00 +18°C° 5.3 mm 4 mps 754 mmHg 86%
    12:00 +17°C° 5.3 mm 5 mps 754 mmHg 85%
    13:00 +19°C° 2.5 mm 5 mps 754 mmHg 83%
    14:00 +20°C° 2.5 mm 6 mps 754 mmHg 82%
    15:00 +20°C° 2.5 mm 6 mps 754 mmHg 80%
    16:00 +20°C° 1.5 mm 5 mps 754 mmHg 81%
    17:00 +20°C° 1.5 mm 5 mps 754 mmHg 82%
    18:00 +20°C° 1.5 mm 4 mps 754 mmHg 83%
    19:00 +19°C° 0.8 mm 4 mps 755 mmHg 83%
    20:00 +19°C° 0.8 mm 4 mps 755 mmHg 84%
    21:00 +19°C° 0.8 mm 3 mps 755 mmHg 84%
    22:00 +19°C° 0.6 mm 3 mps 756 mmHg 84%
    23:00 +19°C° 0.6 mm 3 mps 756 mmHg 84%

    21 October, Sunday

    Time Temperature Precipitation Wind Pressure Humidity
    00:00 +19°C° 0.6 mm 3 mps 756 mmHg 83%
    01:00 +19°C° 0.8 mm 3 mps 756 mmHg 83%
    02:00 +19°C° 0.8 mm 3 mps 756 mmHg 83%
    03:00 +19°C° 0.8 mm 3 mps 756 mmHg 83%
    04:00 +19°C° 1 mm 3 mps 756 mmHg 83%
    05:00 +19°C° 1 mm 3 mps 756 mmHg 84%
    06:00 +19°C° 1 mm 3 mps 756 mmHg 84%
    07:00 +20°C° 1.3 mm 3 mps 757 mmHg 82%
    08:00 +21°C° 1.3 mm 2 mps 757 mmHg 79%
    09:00 +23°C° 1.3 mm 2 mps 757 mmHg 76%
    10:00 +24°C° 0.8 mm 2 mps 758 mmHg 70%
    11:00 +25°C° 0.8 mm 2 mps 758 mmHg 65%
    12:00 +26°C° 0.8 mm 2 mps 758 mmHg 59%
    13:00 +26°C° 0.3 mm 2 mps 758 mmHg 58%
    14:00 +27°C° 0.3 mm 2 mps 757 mmHg 58%
    15:00 +27°C° 0.3 mm 2 mps 757 mmHg 57%
    16:00 +25°C° 0.1 mm 2 mps 757 mmHg 62%
    17:00 +24°C° 0.1 mm 2 mps 758 mmHg 67%
    18:00 +23°C° 0.1 mm 2 mps 758 mmHg 72%
    19:00 +23°C° 0.1 mm 2 mps 758 mmHg 74%
    20:00 +21°C° 0.1 mm 2 mps 758 mmHg 76%
    21:00 +21°C° 0.1 mm 3 mps 759 mmHg 79%
    22:00 +21°C° 0.1 mm 3 mps 759 mmHg 81%
    23:00 +20°C° 0.1 mm 3 mps 759 mmHg 83%

    22 October, Monday

    Time Temperature Precipitation Wind Pressure Humidity
    00:00 +20°C° 0.1 mm 3 mps 758 mmHg 86%
    01:00 +20°C° 0.1 mm 4 mps 758 mmHg 86%
    02:00 +20°C° 0.1 mm 4 mps 758 mmHg 87%
    03:00 +20°C° 0.1 mm 4 mps 758 mmHg 88%
    04:00 +20°C° 0 mm 4 mps 758 mmHg 87%
    05:00 +19°C° 0 mm 4 mps 758 mmHg 87%
    06:00 +19°C° 0 mm 4 mps 758 mmHg 86%
    07:00 +20°C° 0 mm 4 mps 758 mmHg 81%
    08:00 +21°C° 0 mm 4 mps 759 mmHg 77%
    09:00 +22°C° 0 mm 4 mps 759 mmHg 72%
    10:00 +23°C° 0 mm 4 mps 759 mmHg 70%
    11:00 +25°C° 0 mm 5 mps 759 mmHg 68%
    12:00 +26°C° 0 mm 5 mps 759 mmHg 65%
    13:00 +26°C° 0 mm 5 mps 758 mmHg 65%
    14:00 +26°C° 0 mm 4 mps 758 mmHg 65%
    15:00 +26°C° 0 mm 4 mps 757 mmHg 65%
    16:00 +25°C° 0 mm 4 mps 757 mmHg 70%
    17:00 +23°C° 0 mm 4 mps 757 mmHg 75%
    18:00 +21°C° 0 mm 4 mps 758 mmHg 80%
    19:00 +21°C° 0 mm 4 mps 758 mmHg 82%
    20:00 +21°C° 0 mm 4 mps 758 mmHg 84%
    21:00 +21°C° 0 mm 3 mps 758 mmHg 86%
    22:00 +20°C° 0 mm 3 mps 758 mmHg 87%
    23:00 +20°C° 0 mm 3 mps 758 mmHg 88%
    Show more